JA9GIL-13 Weather Reports


time (UTC)temp
C
wind
direction
speed
KPH
gust
KPH
rain 1hr
cm
rain 24hr
cm
rain mn
cm
humidity
%
barometer
mb
20260509001634 13 352 1.6 8.0 0.00 0.33 0.30 71 1016.2
20260509000734 13 15 3.2 6.4 0.00 0.33 0.30 72 1015.9
20260508234034 13 315 3.2 6.4 0.00 0.33 0.30 72 1015.7
20260508232234 14 280 3.2 9.7 0.00 0.33 0.30 75 1016.1
20260508231333 15 279 3.2 11.3 0.00 0.33 0.30 83 1016.2
20260508230435 14 285 3.2 6.4 0.00 0.33 0.30 90 1016.1
20260508225533 13 257 1.6 4.8 0.00 0.33 0.30 91 1016.1
20260508223733 11 297 0.0 4.8 0.00 0.33 0.30 93 1016.3
20260508222835 11 302 0.0 3.2 0.00 0.33 0.30 93 1015.9
20260508221034 10 356 0.0 3.2 0.00 0.33 0.30 92 1016.0
20260508215234 10 1 0.0 1.6 0.00 0.33 0.30 91 1016.0
20260508213434 10 330 1.6 3.2 0.00 0.33 0.30 91 1016.0
20260508212533 10 324 0.0 3.2 0.00 0.33 0.30 91 1015.8
20260508211633 10 356 1.6 4.8 0.00 0.33 0.30 91 1015.6
20260508205834 10 328 3.2 6.4 0.15 0.33 0.30 91 1015.3
20260508204934 10 44 3.2 9.7 0.15 0.33 0.30 91 1015.2
20260508204034 10 328 6.4 17.7 0.15 0.33 0.30 91 1014.7
20260508203134 10 50 3.2 11.3 0.15 0.33 0.30 91 1014.4
20260508202233 10 38 6.4 11.3 0.15 0.33 0.30 91 1014.1
20260508201334 10 351 3.2 8.0 0.10 0.28 0.28 90 1013.9
20260508195534 10 12 3.2 9.7 0.03 0.18 0.15 90 1013.2
20260508193734 10 11 4.8 12.9 0.10 0.18 0.15 87 1012.7
20260508192833 10 311 8.0 12.9 0.15 0.18 0.15 85 1012.5
20260508190134 10 335 3.2 8.0 0.13 0.15 0.13 81 1011.9
20260508185234 10 32 4.8 11.3 0.13 0.15 0.13 80 1011.7
20260508184333 11 344 4.8 12.9 0.05 0.10 0.05 77 1011.7
20260508183433 11 317 6.4 8.0 0.05 0.10 0.05 75 1011.3
20260508182534 11 356 3.2 12.9 0.00 0.03 0.00 74 1011.0
20260508181633 11 339 6.4 12.9 0.00 0.03 0.00 74 1011.0
20260508180733 11 6 3.2 11.3 0.00 0.03 0.00 74 1010.8
20260508174934 12 23 4.8 14.5 0.00 0.03 0.00 72 1010.8
20260508174033 12 19 3.2 16.1 0.00 0.03 0.00 64 1010.6
20260508173134 13 60 6.4 12.9 0.00 0.03 0.00 63 1010.1
20260508172233 13 30 3.2 9.7 0.00 0.03 0.00 62 1010.0
20260508171334 13 17 4.8 17.7 0.00 0.03 0.00 60 1010.3
20260508170434 13 8 6.4 16.1 0.00 0.03 0.00 58 1009.9
20260508165534 13 14 6.4 9.7 0.00 0.03 0.00 55 1009.8
20260508164633 13 24 3.2 8.0 0.00 0.03 0.00 55 1009.6
20260508163734 13 16 6.4 14.5 0.00 0.03 0.00 54 1009.6
20260508162833 13 346 6.4 11.3 0.00 0.03 0.00 53 1009.4
20260508161934 13 350 3.2 6.4 0.00 0.03 0.00 52 1009.8
20260508160133 13 33 3.2 8.0 0.00 0.03 0.00 50 1009.8
20260508155234 13 13 4.8 11.3 0.00 0.03 0.00 50 1010.0
20260508153434 13 317 4.8 8.0 0.00 0.03 0.00 50 1009.6
20260508152534 13 343 3.2 17.7 0.00 0.03 0.00 50 1010.1
20260508151634 13 343 3.2 6.4 0.00 0.03 0.00 50 1010.0
20260508150734 13 298 1.6 6.4 0.00 0.03 0.00 50 1010.1
20260508145834 12 305 1.6 11.3 0.00 0.03 0.03 49 1010.4
20260508144933 12 289 4.8 8.0 0.00 0.03 0.03 50 1010.3
20260508144034 12 29 1.6 6.4 0.00 0.03 0.03 50 1010.6
20260508143134 12 305 1.6 4.8 0.00 0.03 0.03 51 1010.6
20260508141334 12 63 4.8 12.9 0.00 0.03 0.03 50 1010.5
20260508135534 12 290 3.2 3.2 0.00 0.03 0.03 59 1010.2
20260508133734 12 312 1.6 4.8 0.00 0.03 0.03 56 1010.1
20260508132834 12 306 1.6 4.8 0.00 0.03 0.03 57 1010.1
20260508131934 12 344 3.2 6.4 0.00 0.03 0.03 56 1010.0
20260508130134 12 311 3.2 4.8 0.00 0.03 0.03 62 1010.5
20260508125234 12 34 1.6 11.3 0.00 0.03 0.03 62 1010.5
20260508124334 12 331 1.6 8.0 0.00 0.03 0.03 63 1010.2
20260508123434 12 38 1.6 12.9 0.00 0.03 0.03 64 1010.4
20260508122534 12 31 3.2 12.9 0.00 0.03 0.03 65 1010.3
20260508121633 13 8 3.2 14.5 0.00 0.03 0.03 66 1010.3
20260508120734 13 17 6.4 14.5 0.00 0.03 0.03 68 1010.3
20260508115834 13 35 3.2 17.7 0.00 0.03 0.03 70 1010.3
20260508114034 13 354 6.4 12.9 0.00 0.03 0.03 68 1010.0
20260508113134 13 53 6.4 14.5 0.00 0.03 0.03 69 1010.1
20260508112234 13 43 4.8 12.9 0.00 0.03 0.03 71 1009.7
20260508111334 13 24 6.4 17.7 0.00 0.03 0.03 71 1009.7
20260508110434 13 42 3.2 12.9 0.00 0.03 0.03 72 1009.5
20260508103734 13 17 8.0 17.7 0.03 0.03 0.03 76 1009.0
20260508102834 13 64 4.8 19.3 0.03 0.03 0.03 77 1008.8
20260508095234 13 29 6.4 9.7 0.03 0.03 0.03 84 1007.9
20260508092534 14 34 3.2 12.9 0.00 0.00 0.00 85 1007.8
20260508090734 14 15 4.8 12.9 0.00 0.00 0.00 83 1007.0
20260508084935 15 3 4.8 12.9 0.00 0.00 0.00 81 1006.6
20260508081334 15 342 4.8 12.9 0.00 0.00 0.00 80 1005.7
20260508080433 15 40 6.4 16.1 0.00 0.00 0.00 80 1005.8
20260508075533 16 48 4.8 17.7 0.00 0.00 0.00 79 1005.6
20260508074634 16 72 6.4 17.7 0.00 0.00 0.00 78 1005.3
20260508073734 16 38 8.0 16.1 0.00 0.00 0.00 77 1005.0
20260508072834 16 350 6.4 17.7 0.00 0.00 0.00 74 1004.9
20260508071934 17 64 4.8 16.1 0.00 0.00 0.00 72 1004.7
20260508070134 18 353 4.8 17.7 0.00 0.00 0.00 63 1004.6
20260508065234 19 352 4.8 20.9 0.00 0.00 0.00 62 1004.4
20260508063434 20 74 6.4 29.0 0.00 0.00 0.00 63 1004.4
20260508062534 20 65 6.4 25.7 0.00 0.00 0.00 64 1004.1
20260508061633 20 36 4.8 20.9 0.00 0.00 0.00 64 1003.9
20260508060734 20 24 4.8 20.9 0.00 0.00 0.00 65 1004.1
20260508055834 20 27 9.7 17.7 0.00 0.00 0.00 61 1003.8
20260508054934 21 34 11.3 20.9 0.00 0.00 0.00 59 1003.9
20260508054034 21 63 8.0 24.1 0.00 0.00 0.00 56 1003.7
20260508053134 22 41 9.7 24.1 0.00 0.00 0.00 51 1003.9
20260508052234 22 12 6.4 16.1 0.00 0.00 0.00 51 1003.5
20260508050433 21 28 8.0 22.5 0.00 0.00 0.00 56 1003.5
20260508045534 21 46 3.2 22.5 0.00 0.00 0.00 55 1003.6
20260508044633 21 27 8.0 17.7 0.00 0.00 0.00 56 1003.8
20260508043734 21 38 6.4 16.1 0.00 0.00 0.00 58 1003.9
20260508042834 21 66 4.8 16.1 0.00 0.00 0.00 60 1003.9
20260508041934 21 43 3.2 12.9 0.00 0.00 0.00 60 1004.4
20260508041034 21 40 8.0 12.9 0.00 0.00 0.00 61 1004.1
20260508040134 21 54 6.4 12.9 0.00 0.00 0.00 62 1004.3
20260508035234 21 46 4.8 11.3 0.00 0.00 0.00 63 1004.1
20260508034334 21 58 6.4 11.3 0.00 0.00 0.00 62 1004.2
20260508033434 21 45 4.8 12.9 0.00 0.00 0.00 62 1004.4
20260508032534 21 40 1.6 14.5 0.00 0.00 0.00 62 1004.3
20260508030734 21 357 6.4 19.3 0.00 0.00 0.00 61 1005.0
20260508024934 21 65 6.4 17.7 0.00 0.00 0.00 61 1005.0
20260508024034 21 19 9.7 17.7 0.00 0.00 0.00 63 1005.1
20260508023135 20 17 8.0 16.1 0.00 0.00 0.00 64 1005.2
20260508021334 19 69 9.7 16.1 0.00 0.00 0.00 71 1005.1
20260508020434 20 2 6.4 16.1 0.00 0.00 0.00 70 1005.1
20260508015535 20 43 8.0 12.9 0.00 0.00 0.00 71 1005.2
20260508014634 20 359 3.2 12.9 0.00 0.00 0.00 71 1005.1
20260508012834 20 36 4.8 14.5 0.00 0.00 0.00 75 1005.3
20260508011934 19 19 3.2 12.9 0.00 0.00 0.00 76 1005.4
20260508011035 19 51 8.0 17.7 0.00 0.00 0.00 74 1005.2
20260508010134 20 3 9.7 17.7 0.00 0.00 0.00 71 1005.3
20260508005234 20 21 8.0 12.9 0.00 0.00 0.00 69 1005.7
20260508004334 20 39 3.2 14.5 0.00 0.00 0.00 67 1005.7
20260508003434 20 74 3.2 17.7 0.00 0.00 0.00 66 1005.6